Location: �quirre
(50.4736°N, 2.2351°E)
Time: 17:49:10
(UTC+00:00)

Sich 1 Rocket - Pass Details

Date: 07 August 2020
Orbit: 617 x 651 km, 82.5° (Epoch: 25 September)

Event Time Altitude Azimuth Distance (km) Brightness Sun altitude
Exits shadow 00:48:41 70° 193° (SSW) 664 3.4 -22.2°
Maximum altitude 00:49:10 89° 273° (W) 628 3.4 -22.2°
Drops below altitude 10° 00:53:36 10° 10° (N) 1,996 7.3 -22.0°
Sets 00:55:50 0° 11° (N) 2,906 8.5 -21.9°
